Fort Lewis, WA

3:29 AM PDT on June 26, 2017 (GMT -0700)
Gray Army Air Field

Weather History for KGRF - July, 2013

Change the Weather History Date:

Monday, July 29, 2013

  Actual Average Record
Temperature  
Mean Temperature 62 °F -  
Max Temperature 75 °F 77 °F 95 °F (2003)
Min Temperature 50 °F 53 °F 50 °F (2006)
Degree Days  
Heating Degree Days 2    
Growing Degree Days 12 (Base 50)    
Moisture  
Dew Point 51 °F    
Average Humidity 67    
Maximum Humidity 94    
Minimum Humidity 43    
Precipitation  
Precipitation 0.00 in - - ()
Sea Level Pressure  
Sea Level Pressure 30.00 in    
Wind  
Wind Speed 5 mph (SW)    
Max Wind Speed 9 mph    
Max Gust Speed -    
Visibility 10 miles    
Events      
Averages and records for this station are not official NWS values.
T = Trace of Precipitation, MM = Missing Value Source: NWS Daily Summary

Daily Weather History Graph

Daily Weather History Graph

Search for Another Location

Airport or City:

Trip Planner

Search our weather history database for the weather conditions in past years. The results will help you decide how hot, cold, wet, or windy it might be!

Date:

Astronomy

Jul. 29, 2013 Rise Set
Actual Time 5:46 AM PDT 8:46 PM PDT
Civil Twilight 5:10 AM PDT 9:22 PM PDT
Nautical Twilight 4:23 AM PDT 10:08 PM PDT
Astronomical Twilight 3:27 AM PDT 11:04 PM PDT
Moon No Moon Rise 2:08 PM PDT (7/29)
Length of Visible Light 16h 12m
Length of Day
15h 00m
Waning Gibbous, 50% of the Moon is Illuminated
Jul 29
Waning Gibbous
Aug 6
New
Aug 14
First Quarter
Aug 20
Full
Aug 28
Last Quarter

Hourly Weather History & Observations

Time (PDT) Temp. Dew Point Humidity Pressure Visibility Wind Dir Wind Speed Gust Speed Precip Events Conditions
12:58 AM 50.9 °F 47.8 °F 89% 30.01 in 10.0 mi SE 4.6 mph - N/A   Clear
1:48 AM 50.0 °F 48.2 °F 94% 29.99 in 10.0 mi South 5.8 mph - N/A   Mostly Cloudy
1:58 AM 52.2 °F 49.1 °F 89% 30.00 in 10.0 mi SSW 6.9 mph - N/A   Mostly Cloudy
2:58 AM 57.0 °F 50.2 °F 78% 30.00 in 10.0 mi SSW 8.1 mph - N/A   Overcast
3:58 AM 56.1 °F 50.2 °F 80% 30.00 in 10.0 mi SSE 3.5 mph - N/A   Overcast
4:58 AM 56.1 °F 50.2 °F 80% 30.00 in 10.0 mi SE 3.5 mph - N/A   Overcast
5:58 AM 56.5 °F 49.8 °F 78% 30.01 in 10.0 mi South 3.5 mph - N/A   Overcast
6:58 AM 56.7 °F 50.0 °F 78% 30.02 in 10.0 mi SSW 3.5 mph - N/A   Overcast
7:58 AM 57.6 °F 49.6 °F 75% 30.02 in 10.0 mi SW 1.2 mph - N/A   Overcast
8:58 AM 58.6 °F 49.8 °F 72% 30.03 in 10.0 mi West 3.5 mph - N/A   Overcast
9:58 AM 60.4 °F 50.0 °F 68% 30.02 in 10.0 mi Variable 3.5 mph - N/A   Overcast
10:58 AM 62.8 °F 50.5 °F 64% 30.02 in 10.0 mi South 4.6 mph - N/A   Overcast
11:58 AM 65.3 °F 51.1 °F 60% 30.01 in 10.0 mi Calm Calm - N/A   Mostly Cloudy
12:23 PM 66.2 °F 51.8 °F 60% 30.00 in 10.0 mi Variable 2.3 mph - N/A   Mostly Cloudy
12:48 PM 68.0 °F 51.8 °F 56% 30.00 in 10.0 mi Variable 4.6 mph - N/A   Mostly Cloudy
12:58 PM 68.4 °F 52.0 °F 56% 30.01 in 10.0 mi SSW 4.6 mph - N/A   Mostly Cloudy
1:58 PM 70.0 °F 52.3 °F 53% 30.00 in 10.0 mi Variable 6.9 mph - N/A   Clear
2:58 PM 72.0 °F 52.5 °F 50% 29.99 in 10.0 mi Variable 2.3 mph - N/A   Clear
3:58 PM 73.6 °F 52.5 °F 48% 29.99 in 10.0 mi Variable 5.8 mph - N/A   Clear
4:58 PM 74.3 °F 52.2 °F 46% 29.98 in 10.0 mi Variable 3.5 mph - N/A   Clear
5:58 PM 75.6 °F 51.4 °F 43% 29.97 in 10.0 mi WSW 5.8 mph - N/A   Clear
6:58 PM 74.8 °F 52.3 °F 45% 29.97 in 10.0 mi West 8.1 mph - N/A   Clear
7:58 PM 73.6 °F 54.1 °F 50% 29.98 in 10.0 mi NW 4.6 mph - N/A   Clear
8:58 PM 68.9 °F 55.6 °F 62% 29.99 in 10.0 mi West 9.2 mph - N/A   Clear
9:58 PM 64.0 °F 54.0 °F 70% 30.01 in 10.0 mi West 9.2 mph - N/A   Clear
10:58 PM 60.4 °F 52.2 °F 74% 30.02 in 10.0 mi West 5.8 mph - N/A   Clear
11:58 PM 59.0 °F 52.0 °F 78% 30.04 in 10.0 mi West 5.8 mph - N/A   Clear